CW9927 Weather Reports


time (UTC)temp
F
wind
direction
speed
knots
gust
knots
rain 1hr
in
rain 24hr
in
rain mn
in
humidity
%
barometer
mb
20260904095337 62 0.0 0.0 0.01 0.01 0.01 90 1012.8
20260904094317 63 0.0 0.0 0.01 0.01 0.01 91 1012.7
20260904093317 63 0.0 0.0 0.01 0.01 0.01 91 1012.7
20260904092317 63 0.0 0.0 0.01 0.01 0.01 91 1012.7
20260904091317 63 0.0 0.0 0.01 0.01 0.01 91 1012.7
20260904090417 63 0.0 0.0 0.00 0.00 0.00 90 1012.8
20260904085317 63 0.0 0.0 0.00 0.00 0.00 90 1012.9
20260904084337 63 0.0 0.0 0.00 0.00 0.00 90 1012.8
20260904083318 63 0.0 0.0 0.00 0.00 0.00 90 1012.9
20260904082317 63 0.0 0.0 0.00 0.00 0.00 90 1012.9
20260904081357 63 0.0 0.0 0.00 0.00 0.00 90 1012.9
20260904080317 62 0.0 0.0 0.00 0.00 0.00 90 1012.9
20260904075338 62 0.0 0.0 0.00 0.00 0.00 90 1012.9
20260904074338 62 0.0 0.0 0.00 0.00 0.00 90 1012.9
20260904073317 62 0.0 0.0 0.00 0.00 0.00 90 1012.8
20260904072337 62 0.0 0.0 0.00 0.00 0.00 89 1012.7
20260904071337 62 0.0 0.0 0.00 0.00 0.00 89 1012.8
20260904070335 62 0.0 0.0 0.00 0.00 0.00 89 1012.9
20260904070233 62 0.0 0.0 0.00 0.00 0.00 89 1012.8
20260904065118 62 0.0 0.0 0.00 0.00 0.00 89 1012.8
20260904064118 62 0.0 0.0 0.00 0.00 0.00 88 1012.9
20260904063118 62 0.0 0.0 0.00 0.00 0.00 89 1013.0
20260904062138 62 0.0 0.0 0.00 0.00 0.00 88 1012.9
20260904061117 62 0.0 0.0 0.00 0.00 0.00 88 1013.0
20260904060117 63 0.0 0.0 0.00 0.00 0.00 88 1012.9
20260904055118 63 0.0 0.0 0.00 0.00 0.00 88 1013.0
20260904054117 63 0.0 0.0 0.00 0.00 0.00 88 1013.1
20260904053117 63 0.0 0.0 0.00 0.00 0.00 88 1013.2
20260904052118 63 0.0 0.0 0.00 0.00 0.00 88 1013.3
20260904051117 63 0.0 0.0 0.00 0.00 0.00 88 1013.3
20260904050135 63 0.0 0.0 0.00 0.00 0.00 88 1013.3
20260904045116 63 0.0 0.0 0.00 0.00 0.00 87 1013.4
20260904044116 63 0.0 0.0 0.00 0.00 0.00 87 1013.4
20260904043157 63 0.0 0.0 0.00 0.00 0.00 87 1013.4
20260904042116 63 0.0 0.0 0.00 0.00 0.00 87 1013.3
20260904041116 63 0.0 0.0 0.00 0.00 0.00 87 1013.3
20260904040116 64 0.0 0.0 0.00 0.00 0.00 87 1013.2
20260904035116 64 0.0 0.0 0.00 0.00 0.00 86 1013.1
20260904034157 64 0.0 0.0 0.00 0.00 0.00 85 1013.0
20260904033137 63 0.0 0.0 0.00 0.00 0.00 85 1012.9
20260904032136 63 0.0 0.0 0.00 0.00 0.00 84 1012.8
20260904031116 63 0.0 0.0 0.00 0.00 0.00 83 1012.8
20260904030116 63 0.0 0.0 0.00 0.00 0.00 82 1012.8
20260904025138 64 0.0 0.0 0.00 0.00 0.00 82 1012.8
20260904024116 64 0.0 0.0 0.00 0.00 0.00 81 1012.7
20260904023119 65 0.0 0.0 0.00 0.00 0.00 79 1012.7
20260904022137 66 0.0 0.0 0.00 0.00 0.00 78 1012.8
20260904021116 66 0.0 0.0 0.00 0.00 0.00 76 1012.8
20260904020116 67 0.0 0.0 0.00 0.00 0.00 75 1012.8
20260904015116 68 0.0 0.0 0.00 0.00 0.00 73 1012.7
20260904014137 69 0.0 0.9 0.00 0.00 0.00 71 1012.7
20260904013118 69 0.0 0.0 0.00 0.00 0.00 71 1012.7
20260904012116 70 0.0 0.0 0.00 0.00 0.00 70 1012.7
20260904011116 70 0.0 0.0 0.00 0.00 0.00 70 1012.6
20260904005117 71 248 0.9 5.2 0.00 0.00 0.00 67 1012.7
20260904004117 71 0.0 0.0 0.00 0.00 0.00 66 1012.6
20260904003119 71 248 1.7 9.6 0.00 0.00 0.00 65 1012.5
20260904002117 72 270 5.2 12.2 0.00 0.00 0.00 64 1012.6
20260904001119 72 270 1.7 6.1 0.00 0.00 0.00 63 1012.6
20260904000117 73 0.0 0.9 0.00 0.00 0.00 63 1012.7
20260903235137 73 0.0 0.0 0.00 0.00 0.00 63 1012.7
20260903234119 73 0.0 0.0 0.00 0.00 0.00 61 1012.8
20260903233119 74 0.0 0.0 0.00 0.00 0.00 61 1012.9
20260903232137 74 248 4.3 8.7 0.00 0.00 0.00 62 1012.9
20260903231117 74 248 7.0 9.6 0.00 0.00 0.00 60 1012.9
20260903230117 75 270 6.1 12.2 0.00 0.00 0.00 59 1013.0
20260903225137 75 248 4.3 13.9 0.00 0.00 0.00 57 1013.2
20260903224119 75 0.0 0.0 0.00 0.00 0.00 56 1013.3
20260903223117 75 0.0 0.0 0.00 0.00 0.00 56 1013.3
20260903222117 75 0.0 0.0 0.00 0.00 0.00 57 1013.4
20260903221117 74 0.0 0.0 0.00 0.00 0.00 57 1013.5
20260903220117 75 0.0 0.0 0.00 0.00 0.00 54 1013.6
20260903215137 76 0.0 0.0 0.00 0.00 0.00 51 1013.6
20260903214117 78 225 2.6 8.7 0.00 0.00 0.00 48 1013.5
20260903213117 79 0.0 0.0 0.00 0.00 0.00 43 1013.6
20260903212119 79 0.0 0.0 0.00 0.00 0.00 41 1013.6
20260903211117 78 0.0 0.0 0.00 0.00 0.00 47 1013.6
20260903210138 78 0.0 0.9 0.00 0.00 0.00 45 1013.8
20260903205119 78 0.0 1.7 0.00 0.00 0.00 43 1013.9
20260903204118 78 0.0 0.0 0.00 0.00 0.00 47 1014.0
20260903203119 78 0.0 0.0 0.00 0.00 0.00 45 1014.1
20260903202117 77 0.0 0.0 0.00 0.00 0.00 43 1014.2
20260903201137 77 0.0 0.0 0.00 0.00 0.00 46 1014.2
20260903200119 76 0.0 0.0 0.00 0.00 0.00 48 1014.2
20260903195117 76 0.0 0.0 0.00 0.00 0.00 47 1014.4
20260903194117 76 0.0 0.0 0.00 0.00 0.00 50 1014.5
20260903193119 75 0.0 0.0 0.00 0.00 0.00 51 1014.6
20260903192137 74 0.0 0.0 0.00 0.00 0.00 52 1014.8
20260903191117 74 0.0 0.0 0.00 0.00 0.00 55 1015.0
20260903190217 73 0.0 0.0 0.00 0.00 0.00 58 1015.2
20260903185117 72 0.0 0.0 0.00 0.00 0.00 58 1015.5
20260903184117 72 0.0 0.0 0.00 0.00 0.00 59 1015.6
20260903183117 71 0.0 0.0 0.00 0.00 0.00 59 1015.7
20260903182117 71 0.0 0.0 0.00 0.00 0.00 60 1015.8
20260903181137 70 0.0 0.0 0.00 0.00 0.00 60 1015.9
20260903180117 69 0.0 0.0 0.00 0.00 0.00 64 1015.9
20260903175137 69 0.0 0.0 0.00 0.00 0.00 64 1015.9
20260903174117 69 0.0 0.0 0.00 0.00 0.00 66 1015.9
20260903173117 68 0.0 0.0 0.00 0.00 0.00 69 1016.0
20260903172137 66 0.0 0.0 0.00 0.00 0.00 73 1016.2
20260903171158 65 0.0 0.0 0.00 0.00 0.00 74 1016.3
20260903170134 63 0.0 0.0 0.00 0.00 0.00 76 1016.4
20260903165116 63 0.0 0.0 0.00 0.00 0.00 77 1016.5
20260903164136 62 0.0 0.0 0.00 0.00 0.00 78 1016.6
20260903163117 61 0.0 0.0 0.00 0.00 0.00 82 1016.6
20260903161116 59 0.0 0.0 0.00 0.00 0.00 83 1016.7
20260903160116 58 0.0 0.0 0.00 0.00 0.00 85 1016.6
20260903155116 57 0.0 0.0 0.00 0.00 0.00 88 1016.7
20260903154136 55 0.0 0.0 0.00 0.00 0.00 89 1016.8
20260903153116 54 0.0 0.0 0.00 0.00 0.00 90 1016.9
20260903152116 54 0.0 0.0 0.00 0.00 0.00 91 1016.8
20260903151116 53 0.0 0.0 0.00 0.00 0.00 92 1016.9
20260903150116 52 0.0 0.0 0.00 0.00 0.00 92 1016.8
20260903145136 52 0.0 0.0 0.00 0.00 0.00 92 1016.8
20260903144116 51 0.0 0.0 0.00 0.00 0.00 92 1016.8
20260903143116 50 0.0 0.0 0.00 0.00 0.00 92 1016.8
20260903142116 50 0.0 0.0 0.00 0.00 0.00 90 1016.7
20260903141116 50 0.0 0.0 0.00 0.00 0.00 90 1016.6
20260903140116 50 0.0 0.0 0.00 0.00 0.00 91 1016.4
20260903135116 50 0.0 0.0 0.00 0.00 0.00 90 1016.5
20260903134116 50 0.0 0.0 0.00 0.00 0.00 90 1016.4
20260903133116 51 0.0 0.0 0.00 0.00 0.00 90 1016.4
20260903132137 51 0.0 0.0 0.00 0.00 0.00 90 1016.4
20260903131156 51 0.0 0.0 0.00 0.00 0.00 91 1016.4
20260903125116 51 0.0 0.0 0.00 0.00 0.00 91 1016.4
20260903124116 51 0.0 0.0 0.00 0.00 0.00 91 1016.4
20260903123136 51 0.0 0.0 0.00 0.00 0.00 91 1016.4
20260903122116 51 0.0 0.0 0.00 0.00 0.00 90 1016.4
20260903121136 51 0.0 0.0 0.00 0.00 0.00 90 1016.5
20260903120116 51 0.0 0.0 0.00 0.00 0.00 90 1016.5
20260903115116 51 0.0 0.0 0.00 0.00 0.00 90 1016.5
20260903114136 51 0.0 0.0 0.00 0.00 0.00 90 1016.7
20260903113117 51 0.0 0.0 0.00 0.00 0.00 90 1016.7
20260903112116 51 0.0 0.0 0.00 0.00 0.00 89 1016.9
20260903111116 51 0.0 0.0 0.00 0.00 0.00 90 1017.0
20260903110116 52 0.0 0.0 0.00 0.00 0.00 89 1017.0
20260903105117 52 0.0 0.0 0.00 0.00 0.00 90 1016.9
20260903104153 53 0.0 0.0 0.00 0.00 0.00 90 1016.9
20260903103136 53 0.0 0.0 0.00 0.00 0.00 90 1017.0
20260903102116 52 0.0 0.0 0.00 0.00 0.00 89 1016.9
20260903101136 52 0.0 0.0 0.00 0.00 0.00 89 1016.9
20260903100116 53 0.0 0.0 0.00 0.00 0.00 89 1017.0